TimeEST,TemperatureF,Dew PointF,Humidity,Sea Level PressureIn,VisibilityMPH,Wind Direction,Wind SpeedMPH,Gust SpeedMPH,PrecipitationIn,Events,Conditions,WindDirDegrees,DateUTC
12:15 AM,22.8,21.6,95,30.16,7.0,Calm,Calm,-,N/A,,Overcast,0,2013-01-02 05:15:00
12:35 AM,22.8,21.9,96,30.17,7.0,Calm,Calm,-,N/A,,Overcast,0,2013-01-02 05:35:00
12:55 AM,22.8,21.7,96,30.17,7.0,Calm,Calm,-,N/A,,Overcast,0,2013-01-02 05:55:00
1:15 AM,23.5,22.1,94,30.16,7.0,Calm,Calm,-,N/A,,Overcast,0,2013-01-02 06:15:00
1:35 AM,22.8,21.4,94,30.16,7.0,Calm,Calm,-,N/A,,Scattered Clouds,0,2013-01-02 06:35:00
1:55 AM,22.8,21.4,94,30.15,7.0,Calm,Calm,-,N/A,,Clear,0,2013-01-02 06:55:00
2:15 AM,22.8,21.6,95,30.16,7.0,Calm,Calm,-,N/A,,Clear,0,2013-01-02 07:15:00
2:35 AM,21.0,20.3,97,30.17,7.0,Calm,Calm,-,N/A,,Clear,0,2013-01-02 07:35:00
2:55 AM,21.2,21.0,99,30.17,5.0,Calm,Calm,-,N/A,,Clear,0,2013-01-02 07:55:00
3:15 AM,20.8,20.7,99,30.18,5.0,SW,4.6,-,N/A,,Clear,230,2013-01-02 08:15:00
3:35 AM,20.3,20.3,100,30.18,5.0,Calm,Calm,-,N/A,,Clear,0,2013-01-02 08:35:00
3:55 AM,19.6,19.6,100,30.19,7.0,Calm,Calm,-,N/A,,Clear,0,2013-01-02 08:55:00
4:15 AM,19.9,19.6,99,30.19,7.0,Calm,Calm,-,N/A,,Clear,0,2013-01-02 09:15:00
4:35 AM,19.0,18.7,98,30.18,7.0,Calm,Calm,-,N/A,,Clear,0,2013-01-02 09:35:00
4:55 AM,18.7,18.3,98,30.19,5.0,Calm,Calm,-,N/A,,Clear,0,2013-01-02 09:55:00
5:15 AM,18.1,18.0,99,30.20,4.0,Calm,Calm,-,N/A,,Clear,0,2013-01-02 10:15:00
5:35 AM,17.6,17.6,100,30.20,4.0,Calm,Calm,-,N/A,,Clear,0,2013-01-02 10:35:00
5:55 AM,17.6,17.6,100,30.19,5.0,Calm,Calm,-,N/A,,Clear,0,2013-01-02 10:55:00
6:15 AM,15.3,14.9,98,30.20,4.0,Calm,Calm,-,N/A,,Clear,0,2013-01-02 11:15:00
6:35 AM,15.3,15.3,100,30.20,3.0,Calm,Calm,-,N/A,,Clear,0,2013-01-02 11:35:00
6:55 AM,15.8,15.8,100,30.19,4.0,Calm,Calm,-,N/A,,Clear,0,2013-01-02 11:55:00
7:15 AM,14.9,14.7,99,30.20,0.8,Calm,Calm,-,N/A,,Mist,0,2013-01-02 12:15:00
7:35 AM,12.7,12.6,99,30.20,2.0,Calm,Calm,-,N/A,,Clear,0,2013-01-02 12:35:00
7:55 AM,12.7,12.6,99,30.21,1.0,Calm,Calm,-,N/A,,Mist,0,2013-01-02 12:55:00
8:15 AM,12.7,12.6,99,30.22,1.5,Calm,Calm,-,N/A,,Mist,0,2013-01-02 13:15:00
8:35 AM,12.7,12.6,99,30.23,1.5,Calm,Calm,-,N/A,,Mist,0,2013-01-02 13:35:00
8:55 AM,12.9,12.6,98,30.24,1.5,Calm,Calm,-,N/A,,Mist,0,2013-01-02 13:55:00
9:15 AM,13.3,12.9,98,30.24,2.5,Calm,Calm,-,N/A,,Clear,0,2013-01-02 14:15:00
9:35 AM,14.9,14.9,100,30.25,3.0,Calm,Calm,-,N/A,,Scattered Clouds,0,2013-01-02 14:35:00
9:55 AM,15.3,15.3,100,30.26,3.0,Calm,Calm,-,N/A,,Scattered Clouds,0,2013-01-02 14:55:00
10:15 AM,15.3,15.3,100,30.26,2.5,Calm,Calm,-,N/A,,Clear,0,2013-01-02 15:15:00
10:35 AM,15.3,14.9,98,30.27,4.0,Calm,Calm,-,N/A,,Clear,0,2013-01-02 15:35:00
10:55 AM,17.6,17.6,100,30.27,5.0,Calm,Calm,-,N/A,,Clear,0,2013-01-02 15:55:00
11:15 AM,17.8,17.8,100,30.27,5.0,Calm,Calm,-,N/A,,Clear,0,2013-01-02 16:15:00
11:35 AM,20.3,20.3,100,30.28,7.0,Calm,Calm,-,N/A,,Clear,0,2013-01-02 16:35:00
11:55 AM,20.3,19.9,99,30.26,7.0,Calm,Calm,-,N/A,,Clear,0,2013-01-02 16:55:00
12:15 PM,20.8,19.8,96,30.25,7.0,Calm,Calm,-,N/A,,Clear,0,2013-01-02 17:15:00
12:35 PM,21.0,18.3,89,30.25,10.0,Calm,Calm,-,N/A,,Clear,0,2013-01-02 17:35:00
12:55 PM,22.8,18.5,83,30.23,10.0,Calm,Calm,-,N/A,,Clear,0,2013-01-02 17:55:00
1:15 PM,21.7,17.4,83,30.24,10.0,SW,4.6,-,N/A,,Clear,220,2013-01-02 18:15:00
1:35 PM,21.7,18.1,86,30.23,10.0,SW,4.6,-,N/A,,Clear,220,2013-01-02 18:35:00
1:55 PM,23.5,17.8,79,30.23,10.0,SW,5.8,-,N/A,,Clear,220,2013-01-02 18:55:00
2:15 PM,23.7,17.1,76,30.23,10.0,SW,4.6,-,N/A,,Clear,220,2013-01-02 19:15:00
2:35 PM,25.3,17.6,72,30.23,10.0,SW,3.5,-,N/A,,Clear,230,2013-01-02 19:35:00
2:55 PM,25.3,17.6,72,30.22,10.0,West,3.5,-,N/A,,Clear,280,2013-01-02 19:55:00
3:15 PM,25.3,18.0,74,30.23,10.0,Calm,Calm,-,N/A,,Clear,0,2013-01-02 20:15:00
3:35 PM,25.3,15.4,66,30.22,10.0,Calm,Calm,-,N/A,,Clear,0,2013-01-02 20:35:00
3:55 PM,27.9,17.4,65,30.22,10.0,Calm,Calm,-,N/A,,Clear,0,2013-01-02 20:55:00
4:15 PM,25.3,14.9,65,30.22,10.0,Calm,Calm,-,N/A,,Clear,0,2013-01-02 21:15:00
4:35 PM,25.3,14.5,64,30.23,10.0,Calm,Calm,-,N/A,,Clear,0,2013-01-02 21:35:00
4:55 PM,25.3,14.9,65,30.22,10.0,Calm,Calm,-,N/A,,Clear,0,2013-01-02 21:55:00
5:15 PM,23.0,14.0,68,30.22,10.0,Calm,Calm,-,N/A,,Clear,0,2013-01-02 22:15:00
5:35 PM,23.9,14.2,66,30.22,10.0,Calm,Calm,-,N/A,,Clear,0,2013-01-02 22:35:00
6:15 PM,21.0,15.8,80,30.24,10.0,NW,3.5,-,N/A,,Clear,310,2013-01-02 23:15:00
6:35 PM,20.3,16.0,83,30.24,10.0,Calm,Calm,-,N/A,,Clear,0,2013-01-02 23:35:00
6:55 PM,16.7,13.6,88,30.25,10.0,Calm,Calm,-,N/A,,Clear,0,2013-01-02 23:55:00
7:15 PM,18.5,15.8,89,30.25,10.0,Calm,Calm,-,N/A,,Clear,0,2013-01-03 00:15:00
7:35 PM,18.1,15.6,90,30.25,10.0,Calm,Calm,-,N/A,,Clear,0,2013-01-03 00:35:00
7:55 PM,17.6,15.4,91,30.25,10.0,Calm,Calm,-,N/A,,Clear,0,2013-01-03 00:55:00
8:15 PM,17.6,15.8,93,30.26,10.0,Calm,Calm,-,N/A,,Clear,0,2013-01-03 01:15:00
8:55 PM,17.6,15.4,91,30.26,10.0,Calm,Calm,-,N/A,,Clear,0,2013-01-03 01:55:00
9:15 PM,16.7,14.5,91,30.26,10.0,Calm,Calm,-,N/A,,Clear,0,2013-01-03 02:15:00
9:35 PM,15.3,13.6,93,30.26,10.0,Calm,Calm,-,N/A,,Clear,0,2013-01-03 02:35:00
9:55 PM,16.2,15.1,95,30.25,10.0,Calm,Calm,-,N/A,,Clear,0,2013-01-03 02:55:00
10:15 PM,15.3,14.2,95,30.25,10.0,Calm,Calm,-,N/A,,Clear,0,2013-01-03 03:15:00
10:35 PM,15.3,14.7,98,30.24,10.0,Calm,Calm,-,N/A,,Clear,0,2013-01-03 03:35:00
10:55 PM,15.3,14.4,96,30.24,10.0,Calm,Calm,-,N/A,,Clear,0,2013-01-03 03:55:00
11:15 PM,14.0,12.9,95,30.24,10.0,Calm,Calm,-,N/A,,Clear,0,2013-01-03 04:15:00
11:35 PM,13.5,12.4,95,30.24,10.0,Calm,Calm,-,N/A,,Clear,0,2013-01-03 04:35:00
11:55 PM,13.5,12.6,96,30.25,10.0,Calm,Calm,-,N/A,,Clear,0,2013-01-03 04:55:00